Location: Unspecified
(0.0000°N, 0.0000°E)
Time: 04:55:03
(UTC+00:00)

CUTE 1.7 + AOD 2 - Pass Details

Date: 19 May 2026
Orbit: 531 x 545 km, 97.8° (Epoch: 11 June)

Event Time Altitude Azimuth Distance (km) Brightness Sun altitude
Rises 04:09:46 0° 10° (N) 2,657 ? -25.0°
Reaches altitude 10° 04:11:52 10° 9° (N) 1,771 ? -24.5°
Enters shadow 04:14:51 53° 358° (N) 654 ? -23.8°
